星链-35759(STARLINK-35759)

导读

STARLINK-35759(NORAD编号69246)是美国SpaceX公司星链(Starlink)星座中的一颗低轨通信卫星,属于星链第二代规模扩容中的卫星单元。 星链项目旨在构建全球覆盖的低轨宽带卫星互联网,该卫星作为星座组网卫星,继承了星链卫星紧凑平板设计理念,可支持卫星网络的全球覆盖,为地面用户提供宽带互联网接入服务,助力星链实现全球无缝通信的部署目标,目前在近地轨道参与星座正常运行。

Basic Information
目录编号:
69246
目录名称:
STARLINK-35759
国际标识:
2026-117J
轨道中心:
EARTH
卫星名称:
星链-35759
卫星全名:
星链-35759(STARLINK-35759)
卫星状态:
在轨 (已飞行105 天)
发射日期:
2026-05-29 UTC
国别 :
美国 (US)
星等 :
--
Orbit Information
数据来源 国际轨道数据 AOE轨道数据
星历时间 2026-09-09T14:23:50+0800
1天前
查看轨道信息
2026-09-05T23:00:00+0800
5天前
查看轨道信息
半长轴 6840.754km 6840.873km
偏心率 0.0000573 0.000095
轨道倾角 53.160° 53.157°
近地点辐角 64.153° 85.105°
升交点赤经 206.167° 223.191°
平近点角 295.954° 308.470°
近地点 462.225km 462.086km
远地点 463.009km 463.386km
周期 93.846分钟 93.848分钟
每日圈数 15.344293 15.343892
Detailed Information
固有亮度:
5
最大亮度:
2.5
卫星平台:
Starlink V1.0
覆盖范围:
全球
运营商:
太空探索技术公司
运营商所在国:
美国
制造商(研发单位):
太空探索技术公司
制造商所在国:
美国
使用方式:
暂无
Satellite Introduction
Starlink 计划是 SpaceX 推出的全球卫星互联网项目,通过发射低轨道卫星,为全球尤其是偏远地区提供高速、低延迟的互联网服务。自 2019 年起,Starlink 已部署数千颗卫星,旨在缩小全球数字鸿沟,推动互联网普及。该项目还为军事、航空等行业提供通信支持,带来广泛经济效益。
2D Orbit Map
3D Orbit Map
Orbit Altitude Analysis Chart
Orbit Inclination Analysis Chart
Orbit Comprehensive Analysis Chart
View Comprehensive Chart
Conjunction Data List
Event ID Objects TCA Miss Dist (km) Collision Risk Probability Collision Risk Index (CRI) Action
CDM_260911-115906-003106-924621
2026-09-11T
11:59:25+0000
0.218 km
中距离
4.783998E-4 高风险 0.89
CDM_260911-040005-360006-924623
2026-09-11T
04:00:26+0000
0.308 km
远距离
3.669798E-4 高风险 0.86
CDM_260912-215106-664006-924621
2026-09-12T
21:51:34+0000
0.599 km
远距离
1.157261E-4 高风险 0.76
CDM_260911-124106-828806-924621
2026-09-11T
12:41:06+0000
0.559 km
远距离
5.287012E-5 中风险 0.69
CDM_260913-080606-592206-924621
2026-09-13T
08:06:09+0000
0.821 km
远距离
4.599193E-5 中风险 0.68
CDM_260911-150106-828806-924621
2026-09-11T
15:01:47+0000
0.644 km
远距离
3.468075E-5 中风险 0.66
CDM_260911-023906-337706-924621
2026-09-11T
02:39:27+0000
0.815 km
远距离
3.251647E-5 中风险 0.65
CDM_260912-035306-664006-924621
2026-09-12T
03:53:02+0000
0.916 km
远距离
3.16191E-5 中风险 0.65
CDM_260911-142206-337706-924621
2026-09-11T
14:22:52+0000
0.857 km
远距离
2.743621E-5 中风险 0.64
CDM_260913-061806-445606-924621
2026-09-13T
06:18:27+0000
0.952 km
远距离
2.420406E-5 中风险 0.63
Miss Distance Evolution Trend with All Objects
Collision Probability Evolution Trend with All Objects